Regional Weather Roundup
Issued by NWS

Home | Current Version | Previous Version | Graphics & Text | Print | Product List | Glossary On
Versions: 1 2 3 4 5 6 7 8 9 10 11 12 13 14 15 16 17 18 19 20 21 22 23 24 25 26 27 28 29 30 31 32 33 34 35 36 37 38 39 40 41 42 43 44 45 46 47 48 49 50
000
ASUS43 KFSD 160410
RWRSD

WEATHER ROUNDUP FOR SOUTH DAKOTA
NATIONAL WEATHER SERVICE SIOUX FALLS SD
1100 PM CDT MON SEP 15 2014

NOTE: "FAIR" INDICATES FEW OR NO CLOUDS BELOW 12,000 FEET WITH NO
SIGNIFICANT WEATHER AND/OR OBSTRUCTIONS TO VISIBILITY.


SDZ001>005-009-010-012>017-160500-
NORTHWEST AND NORTH CENTRAL SOUTH DAKOTA

CITY           SKY/WX    TMP DP  RH WIND       PRES   REMARKS
BUFFALO          N/A     52  42  69 SE5       30.04S
FAITH            N/A     51  39  63 SE15      30.11F
MOBRIDGE       CLEAR     46  43  89 E8        30.13F
$$

SDZ012>016-024>037-041>051-057-063-072>074-160500-
SOUTHWEST AND SOUTH CENTRAL SOUTH DAKOTA

CITY           SKY/WX    TMP DP  RH WIND       PRES   REMARKS
RAPID CTY ARPT CLEAR     49  42  77 S6        30.11F
PIERRE         CLEAR     48  38  68 SE8       30.16F
CUSTER         CLEAR     45  40  82 NW5       30.21F
ELLSWORTH AFB  CLEAR     53  44  72 S10       30.10F
PHILIP         CLEAR     49  40  71 E6        30.13F
PINE RIDGE     CLEAR     60  42  51 S17G25    30.13F
WINNER         FAIR      50  39  66 SE12      30.20F
$$

SDZ004>011-016>023-039-040-160500-
NORTHEAST SOUTH DAKOTA

CITY           SKY/WX    TMP DP  RH WIND       PRES   REMARKS
ABERDEEN       CLEAR     44  37  76 S8        30.19S
WATERTOWN      CLEAR     44  38  79 S3        30.21F
SISSETON         N/A     43  38  82 SW6       30.18S
$$

SDZ017-020-022-023-036>040-048>070-160500-
SOUTHEAST SOUTH DAKOTA

CITY           SKY/WX    TMP DP  RH WIND       PRES   REMARKS
SIOUX FALLS    CLEAR     46  43  89 CALM      30.24S
HURON          CLEAR     49  35  58 SE5       30.21F
CHAMBERLAIN    CLEAR     44  38  77 SE6       30.20F
MITCHELL       CLEAR     50  42  74 S5        30.24S
YANKTON        CLEAR     48  41  76 CALM      30.25S
$$

ABBREVIATIONS USED IN REMARKS
   TC - TEMPERATURE IN CELSIUS
  WCI - WIND CHILL INDEX
   HX - HEAT INDEX
  VSB - VISIBILITY



USA.gov is the U.S. government's official web portal to all federal, state and local government web resources and services.